ICEYE-X39 (60546 NORAD) Tracking and Keplerian Element Data

This shows tracking and keplerian element data for the satellite.

Feedback or suggestion? Click here.




ElementValue
Catalog60546
NameICEYE-X39
Epoch Orbit2551
Epoch Day34.762476
Epoch Year2025
RAAN113.6204
Inclination97.725
Eccentricity0.0003503
Argument of Perigee321.0212
Mean Anonmoly39.0756
Mean Motion14.95098472
Decay Rate6.768E-05
L11 60546U 24149CG 25034.76247600 .00006768 00000+0 62230-3 0 9999
L22 60546 97.7250 113.6204 0003503 321.0212 39.0756 14.95098472 25514



Live tracking and technical data element details for ICEYE-X39 (NORAD 60546). ICEYE-X39 can be tracked NOW for your location showing map with azimuth and elevation plus other details from your city location.







IsCatalogInMostPopularTable: catalog: 60546, numindb: 75
Update: records affected: 1



GetName: 60546 ICEYE-X39

Hit Count: updated at: Mon, 17 Nov 2025 06:16:47 GMT